STARLINK-35096

Last updated on Thu Oct 02 2025 00:02:05 GMT+0000 (Coordinated Universal Time)

1 65479U 25195X 25274.46395822 .00053260 00000+0 95810-3 0 9993 2 65479 53.1578 280.7364 0001048 75.5893 284.5232 15.49340169 5555
UTC large
Height (km)
Speed (km/s)
/
Latitude / Longitude
Inclination (degrees)
Orbital Period (minutes)
Azimuth
Elevation
Range (km)
Doppler Factor

Next 0 passes for location: London (51.5072 / 0.1276)

Sorry there are no passes over London.
STARLINK-35096